Year,Month,Day,Hour,Minute,Value (Times are PST for temperature in C)
2012,04,08,00,00,4.50
2012,04,08,00,01,4.50
2012,04,08,00,02,4.50
2012,04,08,00,03,4.50
2012,04,08,00,04,4.60
2012,04,08,00,05,4.60
2012,04,08,00,06,4.60
2012,04,08,00,07,4.60
2012,04,08,00,08,4.60
2012,04,08,00,09,4.60
2012,04,08,00,10,4.70
2012,04,08,00,11,4.70
2012,04,08,00,12,4.70
2012,04,08,00,13,4.80
2012,04,08,00,14,4.80
2012,04,08,00,15,4.80
2012,04,08,00,16,4.80
2012,04,08,00,17,4.80
2012,04,08,00,18,4.80
2012,04,08,00,19,4.80
2012,04,08,00,20,4.80
2012,04,08,00,21,4.80
2012,04,08,00,22,4.80
2012,04,08,00,23,4.80
2012,04,08,00,24,4.80
2012,04,08,00,25,4.80
2012,04,08,00,26,4.80
2012,04,08,00,27,4.80
2012,04,08,00,28,4.80
2012,04,08,00,29,4.80
2012,04,08,00,30,4.90
2012,04,08,00,31,4.90
2012,04,08,00,32,4.90
2012,04,08,00,33,4.90
2012,04,08,00,34,4.90
2012,04,08,00,35,4.90
2012,04,08,00,36,5.00
2012,04,08,00,37,5.00
2012,04,08,00,38,5.00
2012,04,08,00,39,5.00
2012,04,08,00,40,4.90
2012,04,08,00,41,4.90
2012,04,08,00,42,4.90
2012,04,08,00,43,4.90
2012,04,08,00,44,4.90
2012,04,08,00,45,4.90
2012,04,08,00,46,4.90
2012,04,08,00,47,4.90
2012,04,08,00,48,4.90
2012,04,08,00,49,5.00
2012,04,08,00,50,5.00
2012,04,08,00,51,5.00
2012,04,08,00,52,5.00
2012,04,08,00,53,5.00
2012,04,08,00,54,5.00
2012,04,08,00,55,5.10
2012,04,08,00,56,5.10
2012,04,08,00,57,5.10
2012,04,08,00,58,5.10
2012,04,08,00,59,5.10
2012,04,08,01,00,5.10
2012,04,08,01,01,5.10
2012,04,08,01,02,5.10
2012,04,08,01,03,5.00
2012,04,08,01,04,5.00
2012,04,08,01,05,5.00
2012,04,08,01,06,4.90
2012,04,08,01,07,4.90
2012,04,08,01,08,4.90
2012,04,08,01,09,4.90
2012,04,08,01,10,4.90
2012,04,08,01,11,4.90
2012,04,08,01,12,4.90
2012,04,08,01,13,4.90
2012,04,08,01,14,4.90
2012,04,08,01,15,4.80
2012,04,08,01,16,4.80
2012,04,08,01,17,4.80
2012,04,08,01,18,4.80
2012,04,08,01,19,4.80
2012,04,08,01,20,4.80
2012,04,08,01,21,4.80
2012,04,08,01,22,4.70
2012,04,08,01,23,4.70
2012,04,08,01,24,4.70
2012,04,08,01,25,4.60
2012,04,08,01,26,4.60
2012,04,08,01,27,4.60
2012,04,08,01,28,4.60
2012,04,08,01,29,4.60
2012,04,08,01,30,4.60
2012,04,08,01,31,4.60
2012,04,08,01,32,4.60
2012,04,08,01,33,4.60
2012,04,08,01,34,4.60
2012,04,08,01,35,4.60
2012,04,08,01,36,4.60
2012,04,08,01,37,4.60
2012,04,08,01,38,4.50
2012,04,08,01,39,4.50
2012,04,08,01,40,4.50
2012,04,08,01,41,4.50
2012,04,08,01,42,4.50
2012,04,08,01,43,4.50
2012,04,08,01,44,4.50
2012,04,08,01,45,4.40
2012,04,08,01,46,4.40
2012,04,08,01,47,4.40
2012,04,08,01,48,4.40
2012,04,08,01,49,4.40
2012,04,08,01,50,4.40
2012,04,08,01,51,4.40
2012,04,08,01,52,4.40
2012,04,08,01,53,4.40
2012,04,08,01,54,4.40
2012,04,08,01,55,4.40
2012,04,08,01,56,4.40
2012,04,08,01,57,4.40
2012,04,08,01,58,4.40
2012,04,08,01,59,4.40
2012,04,08,02,00,4.40
2012,04,08,02,01,4.40
2012,04,08,02,02,4.40
2012,04,08,02,03,4.40
2012,04,08,02,04,4.40
2012,04,08,02,05,4.40
2012,04,08,02,06,4.50
2012,04,08,02,07,4.60
2012,04,08,02,08,4.60
2012,04,08,02,09,4.60
2012,04,08,02,10,4.60
2012,04,08,02,11,4.60
2012,04,08,02,12,4.60
2012,04,08,02,13,4.60
2012,04,08,02,14,4.60
2012,04,08,02,15,4.60
2012,04,08,02,16,4.60
2012,04,08,02,17,4.60
2012,04,08,02,18,4.60
2012,04,08,02,19,4.70
2012,04,08,02,20,4.70
2012,04,08,02,21,4.70
2012,04,08,02,22,4.80
2012,04,08,02,23,4.80
2012,04,08,02,24,4.90
2012,04,08,02,25,4.90
2012,04,08,02,26,5.00
2012,04,08,02,27,5.00
2012,04,08,02,28,5.10
2012,04,08,02,29,5.20
2012,04,08,02,30,5.30
2012,04,08,02,31,5.30
2012,04,08,02,32,5.40
2012,04,08,02,33,5.40
2012,04,08,02,34,5.40
2012,04,08,02,35,5.40
2012,04,08,02,36,5.40
2012,04,08,02,37,5.40
2012,04,08,02,38,5.30
2012,04,08,02,39,5.40
2012,04,08,02,40,5.40
2012,04,08,02,41,5.30
2012,04,08,02,42,5.30
2012,04,08,02,43,5.40
2012,04,08,02,44,5.40
2012,04,08,02,45,5.30
2012,04,08,02,46,5.30
2012,04,08,02,47,5.40
2012,04,08,02,48,5.40
2012,04,08,02,49,5.50
2012,04,08,02,50,5.50
2012,04,08,02,51,5.60
2012,04,08,02,52,5.50
2012,04,08,02,53,5.50
2012,04,08,02,54,5.40
2012,04,08,02,55,5.30
2012,04,08,02,56,5.30
2012,04,08,02,57,5.30
2012,04,08,02,58,5.20
2012,04,08,02,59,5.20
2012,04,08,03,00,5.20
2012,04,08,03,01,5.20
2012,04,08,03,02,5.20
2012,04,08,03,03,5.20
2012,04,08,03,04,5.20
2012,04,08,03,05,5.20
2012,04,08,03,06,5.20
2012,04,08,03,07,5.20
2012,04,08,03,08,5.20
2012,04,08,03,09,5.20
2012,04,08,03,10,5.20
2012,04,08,03,11,5.20
2012,04,08,03,12,5.20
2012,04,08,03,13,5.20
2012,04,08,03,14,5.10
2012,04,08,03,15,5.10
2012,04,08,03,16,5.10
2012,04,08,03,17,5.10
2012,04,08,03,18,5.00
2012,04,08,03,19,5.00
2012,04,08,03,20,4.90
2012,04,08,03,21,4.90
2012,04,08,03,22,4.80
2012,04,08,03,23,4.80
2012,04,08,03,24,4.70
2012,04,08,03,25,4.70
2012,04,08,03,26,4.70
2012,04,08,03,27,4.60
2012,04,08,03,28,4.60
2012,04,08,03,29,4.50
2012,04,08,03,30,4.50
2012,04,08,03,31,4.40
2012,04,08,03,32,4.40
2012,04,08,03,33,4.40
2012,04,08,03,34,4.30
2012,04,08,03,35,4.30
2012,04,08,03,36,4.30
2012,04,08,03,37,4.30
2012,04,08,03,38,4.30
2012,04,08,03,39,4.30
2012,04,08,03,40,4.30
2012,04,08,03,41,4.30
2012,04,08,03,42,4.30
2012,04,08,03,43,4.30
2012,04,08,03,44,4.40
2012,04,08,03,45,4.40
2012,04,08,03,46,4.40
2012,04,08,03,47,4.40
2012,04,08,03,48,4.40
2012,04,08,03,49,4.40
2012,04,08,03,50,4.40
2012,04,08,03,51,4.40
2012,04,08,03,52,4.40
2012,04,08,03,53,4.40
2012,04,08,03,54,4.40
2012,04,08,03,55,4.40
2012,04,08,03,56,4.40
2012,04,08,03,57,4.40
2012,04,08,03,58,4.30
2012,04,08,03,59,4.30
2012,04,08,04,00,4.30
2012,04,08,04,01,4.30
2012,04,08,04,02,4.30
2012,04,08,04,03,4.30
2012,04,08,04,04,4.40
2012,04,08,04,05,4.40
2012,04,08,04,06,4.40
2012,04,08,04,07,4.40
2012,04,08,04,08,4.40
2012,04,08,04,09,4.40
2012,04,08,04,10,4.40
2012,04,08,04,11,4.40
2012,04,08,04,12,4.40
2012,04,08,04,13,4.40
2012,04,08,04,14,4.40
2012,04,08,04,15,4.50
2012,04,08,04,16,4.60
2012,04,08,04,17,4.60
2012,04,08,04,18,4.70
2012,04,08,04,19,4.70
2012,04,08,04,20,4.70
2012,04,08,04,21,4.70
2012,04,08,04,22,4.70
2012,04,08,04,23,4.70
2012,04,08,04,24,4.70
2012,04,08,04,25,4.70
2012,04,08,04,26,4.70
2012,04,08,04,27,4.60
2012,04,08,04,28,4.60
2012,04,08,04,29,4.60
2012,04,08,04,30,4.50
2012,04,08,04,31,4.50
2012,04,08,04,32,4.50
2012,04,08,04,33,4.40
2012,04,08,04,34,4.40
2012,04,08,04,35,4.40
2012,04,08,04,36,4.40
2012,04,08,04,37,4.40
2012,04,08,04,38,4.40
2012,04,08,04,39,4.40
2012,04,08,04,40,4.50
2012,04,08,04,41,4.50
2012,04,08,04,42,4.50
2012,04,08,04,43,4.50
2012,04,08,04,44,4.50
2012,04,08,04,45,4.50
2012,04,08,04,46,4.50
2012,04,08,04,47,4.50
2012,04,08,04,48,4.50
2012,04,08,04,49,4.50
2012,04,08,04,50,4.50
2012,04,08,04,51,4.60
2012,04,08,04,52,4.60
2012,04,08,04,53,4.70
2012,04,08,04,54,4.70
2012,04,08,04,55,4.80
2012,04,08,04,56,4.80
2012,04,08,04,57,4.90
2012,04,08,04,58,4.90
2012,04,08,04,59,4.90
2012,04,08,05,00,5.00
2012,04,08,05,01,5.00
2012,04,08,05,02,5.10
2012,04,08,05,03,5.10
2012,04,08,05,04,5.10
2012,04,08,05,05,5.10
2012,04,08,05,06,5.10
2012,04,08,05,07,5.10
2012,04,08,05,08,5.10
2012,04,08,05,09,5.10
2012,04,08,05,10,5.10
2012,04,08,05,11,5.10
2012,04,08,05,12,5.10
2012,04,08,05,13,5.10
2012,04,08,05,14,5.10
2012,04,08,05,15,5.10
2012,04,08,05,16,5.00
2012,04,08,05,17,5.00
2012,04,08,05,18,5.00
2012,04,08,05,19,5.00
2012,04,08,05,20,5.00
2012,04,08,05,21,5.00
2012,04,08,05,22,5.00
2012,04,08,05,23,5.00
2012,04,08,05,24,5.10
2012,04,08,05,25,5.10
2012,04,08,05,26,5.10
2012,04,08,05,27,5.10
2012,04,08,05,28,5.10
2012,04,08,05,29,5.10
2012,04,08,05,30,5.10
2012,04,08,05,31,5.10
2012,04,08,05,32,5.10
2012,04,08,05,33,5.10
2012,04,08,05,34,5.10
2012,04,08,05,35,5.10
2012,04,08,05,36,5.10
2012,04,08,05,37,5.10
2012,04,08,05,38,5.10
2012,04,08,05,39,5.10
2012,04,08,05,40,5.10
2012,04,08,05,41,5.20
2012,04,08,05,42,5.20
2012,04,08,05,43,5.20
2012,04,08,05,44,5.20
2012,04,08,05,45,5.20
2012,04,08,05,46,5.20
2012,04,08,05,47,5.30
2012,04,08,05,48,5.30
2012,04,08,05,49,5.30
2012,04,08,05,50,5.30
2012,04,08,05,51,5.30
2012,04,08,05,52,5.30
2012,04,08,05,53,5.30
2012,04,08,05,54,5.30
2012,04,08,05,55,5.30
2012,04,08,05,56,5.30
2012,04,08,05,57,5.30
2012,04,08,05,58,5.30
2012,04,08,05,59,5.30
2012,04,08,06,00,5.40
2012,04,08,06,01,5.40
2012,04,08,06,02,5.40
2012,04,08,06,03,5.40
2012,04,08,06,04,5.40
2012,04,08,06,05,5.40
2012,04,08,06,06,5.40
2012,04,08,06,07,5.40
2012,04,08,06,08,5.40
2012,04,08,06,09,5.40
2012,04,08,06,10,5.40
2012,04,08,06,11,5.50
2012,04,08,06,12,5.50
2012,04,08,06,13,5.50
2012,04,08,06,14,5.60
2012,04,08,06,15,5.60
2012,04,08,06,16,5.60
2012,04,08,06,17,5.70
2012,04,08,06,18,5.70
2012,04,08,06,19,5.80
2012,04,08,06,20,5.80
2012,04,08,06,21,5.90
2012,04,08,06,22,6.00
2012,04,08,06,23,6.00
2012,04,08,06,24,6.10
2012,04,08,06,25,6.10
2012,04,08,06,26,6.10
2012,04,08,06,27,6.10
2012,04,08,06,28,6.20
2012,04,08,06,29,6.20
2012,04,08,06,30,6.20
2012,04,08,06,31,6.30
2012,04,08,06,32,6.30
2012,04,08,06,33,6.30
2012,04,08,06,34,6.30
2012,04,08,06,35,6.30
2012,04,08,06,36,6.30
2012,04,08,06,37,6.30
2012,04,08,06,38,6.30
2012,04,08,06,39,6.20
2012,04,08,06,40,6.30
2012,04,08,06,41,6.20
2012,04,08,06,42,6.30
2012,04,08,06,43,6.30
2012,04,08,06,44,6.30
2012,04,08,06,45,6.30
2012,04,08,06,46,6.30
2012,04,08,06,47,6.40
2012,04,08,06,48,6.40
2012,04,08,06,49,6.40
2012,04,08,06,50,6.50
2012,04,08,06,51,6.50
2012,04,08,06,52,6.50
2012,04,08,06,53,6.60
2012,04,08,06,54,6.60
2012,04,08,06,55,6.60
2012,04,08,06,56,6.60
2012,04,08,06,57,6.60
2012,04,08,06,58,6.60
2012,04,08,06,59,6.70
2012,04,08,07,00,6.70
2012,04,08,07,01,6.70
2012,04,08,07,02,6.80
2012,04,08,07,03,6.80
2012,04,08,07,04,6.80
2012,04,08,07,05,6.80
2012,04,08,07,06,6.80
2012,04,08,07,07,6.80
2012,04,08,07,08,6.80
2012,04,08,07,09,6.80
2012,04,08,07,10,6.80
2012,04,08,07,11,6.90
2012,04,08,07,12,6.90
2012,04,08,07,13,6.90
2012,04,08,07,14,7.00
2012,04,08,07,15,7.00
2012,04,08,07,16,7.00
2012,04,08,07,17,7.00
2012,04,08,07,18,7.00
2012,04,08,07,19,7.00
2012,04,08,07,20,7.10
2012,04,08,07,21,7.10
2012,04,08,07,22,7.10
2012,04,08,07,23,7.10
2012,04,08,07,24,7.20
2012,04,08,07,25,7.20
2012,04,08,07,26,7.20
2012,04,08,07,27,7.20
2012,04,08,07,28,7.20
2012,04,08,07,29,7.30
2012,04,08,07,30,7.30
2012,04,08,07,31,7.40
2012,04,08,07,32,7.40
2012,04,08,07,33,7.40
2012,04,08,07,34,7.40
2012,04,08,07,35,7.40
2012,04,08,07,36,7.40
2012,04,08,07,37,7.50
2012,04,08,07,38,7.50
2012,04,08,07,39,7.60
2012,04,08,07,40,7.60
2012,04,08,07,41,7.60
2012,04,08,07,42,7.70
2012,04,08,07,43,7.70
2012,04,08,07,44,7.70
2012,04,08,07,45,7.70
2012,04,08,07,46,7.80
2012,04,08,07,47,7.80
2012,04,08,07,48,7.80
2012,04,08,07,49,7.90
2012,04,08,07,50,7.90
2012,04,08,07,51,7.90
2012,04,08,07,52,7.90
2012,04,08,07,53,7.90
2012,04,08,07,54,7.90
2012,04,08,07,55,8.00
2012,04,08,07,56,8.00
2012,04,08,07,57,8.00
2012,04,08,07,58,8.00
2012,04,08,07,59,8.00
2012,04,08,08,00,8.00
2012,04,08,08,01,8.00
2012,04,08,08,02,7.90
2012,04,08,08,03,7.90
2012,04,08,08,04,7.90
2012,04,08,08,05,7.90
2012,04,08,08,06,7.90
2012,04,08,08,07,8.00
2012,04,08,08,08,8.00
2012,04,08,08,09,8.00
2012,04,08,08,10,8.10
2012,04,08,08,11,8.10
2012,04,08,08,12,8.10
2012,04,08,08,13,8.10
2012,04,08,08,14,8.10
2012,04,08,08,15,8.20
2012,04,08,08,16,8.20
2012,04,08,08,17,8.20
2012,04,08,08,18,8.20
2012,04,08,08,19,8.20
2012,04,08,08,20,8.30
2012,04,08,08,21,8.30
2012,04,08,08,22,8.40
2012,04,08,08,23,8.40
2012,04,08,08,24,8.40
2012,04,08,08,25,8.40
2012,04,08,08,26,8.50
2012,04,08,08,27,8.50
2012,04,08,08,28,8.50
2012,04,08,08,29,8.60
2012,04,08,08,30,8.60
2012,04,08,08,31,8.70
2012,04,08,08,32,8.70
2012,04,08,08,33,8.80
2012,04,08,08,34,8.80
2012,04,08,08,35,8.90
2012,04,08,08,36,9.00
2012,04,08,08,37,9.10
2012,04,08,08,38,9.10
2012,04,08,08,39,9.20
2012,04,08,08,40,9.30
2012,04,08,08,41,9.40
2012,04,08,08,42,9.40
2012,04,08,08,43,9.50
2012,04,08,08,44,9.50
2012,04,08,08,45,9.60
2012,04,08,08,46,9.60
2012,04,08,08,47,9.60
2012,04,08,08,48,9.60
2012,04,08,08,49,9.60
2012,04,08,08,50,9.60
2012,04,08,08,51,9.70
2012,04,08,08,52,9.70
2012,04,08,08,53,9.70
2012,04,08,08,54,9.80
2012,04,08,08,55,9.80
2012,04,08,08,56,9.80
2012,04,08,08,57,9.80
2012,04,08,08,58,9.80
2012,04,08,08,59,9.90
2012,04,08,09,00,9.90
2012,04,08,09,01,10.00
2012,04,08,09,02,10.00
2012,04,08,09,03,10.00
2012,04,08,09,04,10.10
2012,04,08,09,05,10.10
2012,04,08,09,06,10.10
2012,04,08,09,07,10.00
2012,04,08,09,08,10.00
2012,04,08,09,09,10.10
2012,04,08,09,10,10.10
2012,04,08,09,11,10.10
2012,04,08,09,12,10.10
2012,04,08,09,13,10.20
2012,04,08,09,14,10.20
2012,04,08,09,15,10.20
2012,04,08,09,16,10.20
2012,04,08,09,17,10.20
2012,04,08,09,18,10.20
2012,04,08,09,19,10.20
2012,04,08,09,20,10.20
2012,04,08,09,21,10.30
2012,04,08,09,22,10.30
2012,04,08,09,23,10.30
2012,04,08,09,24,10.30
2012,04,08,09,25,10.40
2012,04,08,09,26,10.40
2012,04,08,09,27,10.40
2012,04,08,09,28,10.50
2012,04,08,09,29,10.50
2012,04,08,09,30,10.50
2012,04,08,09,31,10.50
2012,04,08,09,32,10.50
2012,04,08,09,33,10.60
2012,04,08,09,34,10.60
2012,04,08,09,35,10.60
2012,04,08,09,36,10.70
2012,04,08,09,37,10.60
2012,04,08,09,38,10.60
2012,04,08,09,39,10.70
2012,04,08,09,40,10.70
2012,04,08,09,41,10.80
2012,04,08,09,42,10.80
2012,04,08,09,43,10.80
2012,04,08,09,44,10.80
2012,04,08,09,45,10.80
2012,04,08,09,46,10.80
2012,04,08,09,47,10.80
2012,04,08,09,48,10.80
2012,04,08,09,49,10.80
2012,04,08,09,50,10.80
2012,04,08,09,51,10.80
2012,04,08,09,52,10.80
2012,04,08,09,53,10.80
2012,04,08,09,54,10.80
2012,04,08,09,55,10.90
2012,04,08,09,56,10.90
2012,04,08,09,57,10.90
2012,04,08,09,58,10.90
2012,04,08,09,59,10.90
2012,04,08,10,00,10.90
2012,04,08,10,01,10.90
2012,04,08,10,02,10.90
2012,04,08,10,03,11.00
2012,04,08,10,04,11.00
2012,04,08,10,05,11.10
2012,04,08,10,06,11.10
2012,04,08,10,07,11.20
2012,04,08,10,08,11.20
2012,04,08,10,09,11.30
2012,04,08,10,10,11.30
2012,04,08,10,11,11.30
2012,04,08,10,12,11.30
2012,04,08,10,13,11.30
2012,04,08,10,14,11.20
2012,04,08,10,15,11.20
2012,04,08,10,16,11.20
2012,04,08,10,17,11.20
2012,04,08,10,18,11.20
2012,04,08,10,19,11.20
2012,04,08,10,20,11.20
2012,04,08,10,21,11.20
2012,04,08,10,22,11.20
2012,04,08,10,23,11.20
2012,04,08,10,24,11.20
2012,04,08,10,25,11.20
2012,04,08,10,26,11.20
2012,04,08,10,27,11.20
2012,04,08,10,28,11.30
2012,04,08,10,29,11.30
2012,04,08,10,30,11.30
2012,04,08,10,31,11.40
2012,04,08,10,32,11.40
2012,04,08,10,33,11.40
2012,04,08,10,34,11.40
2012,04,08,10,35,11.40
2012,04,08,10,36,11.30
2012,04,08,10,37,11.40
2012,04,08,10,38,11.40
2012,04,08,10,39,11.40
2012,04,08,10,40,11.40
2012,04,08,10,41,11.30
2012,04,08,10,42,11.30
2012,04,08,10,43,11.40
2012,04,08,10,44,11.40
2012,04,08,10,45,11.40
2012,04,08,10,46,11.40
2012,04,08,10,47,11.40
2012,04,08,10,48,11.50
2012,04,08,10,49,11.50
2012,04,08,10,50,11.50
2012,04,08,10,51,11.50
2012,04,08,10,52,11.40
2012,04,08,10,53,11.40
2012,04,08,10,54,11.40
2012,04,08,10,55,11.50
2012,04,08,10,56,11.50
2012,04,08,10,57,11.50
2012,04,08,10,58,11.40
2012,04,08,10,59,11.50
2012,04,08,11,00,11.50
2012,04,08,11,01,11.50
2012,04,08,11,02,11.50
2012,04,08,11,03,11.60
2012,04,08,11,04,11.60
2012,04,08,11,05,11.60
2012,04,08,11,06,11.60
2012,04,08,11,07,11.60
2012,04,08,11,08,11.60
2012,04,08,11,09,11.60
2012,04,08,11,10,11.60
2012,04,08,11,11,11.60
2012,04,08,11,12,11.60
2012,04,08,11,13,11.70
2012,04,08,11,14,11.70
2012,04,08,11,15,11.80
2012,04,08,11,16,11.80
2012,04,08,11,17,11.80
2012,04,08,11,18,11.80
2012,04,08,11,19,11.80
2012,04,08,11,20,11.80
2012,04,08,11,21,11.80
2012,04,08,11,22,11.80
2012,04,08,11,23,11.80
2012,04,08,11,24,11.80
2012,04,08,11,25,11.80
2012,04,08,11,26,11.80
2012,04,08,11,27,11.90
2012,04,08,11,28,11.90
2012,04,08,11,29,11.90
2012,04,08,11,30,11.90
2012,04,08,11,31,11.90
2012,04,08,11,32,11.90
2012,04,08,11,33,11.90
2012,04,08,11,34,11.90
2012,04,08,11,35,12.00
2012,04,08,11,36,12.00
2012,04,08,11,37,12.10
2012,04,08,11,38,12.10
2012,04,08,11,39,12.10
2012,04,08,11,40,12.10
2012,04,08,11,41,12.10
2012,04,08,11,42,12.10
2012,04,08,11,43,12.10
2012,04,08,11,44,12.10
2012,04,08,11,45,12.10
2012,04,08,11,46,12.10
2012,04,08,11,47,12.10
2012,04,08,11,48,12.10
2012,04,08,11,49,12.10
2012,04,08,11,50,12.10
2012,04,08,11,51,12.10
2012,04,08,11,52,12.20
2012,04,08,11,53,12.20
2012,04,08,11,54,12.20
2012,04,08,11,55,12.20
2012,04,08,11,56,12.30
2012,04,08,11,57,12.30
2012,04,08,11,58,12.30
2012,04,08,11,59,12.30
2012,04,08,12,00,12.30
2012,04,08,12,01,12.30
2012,04,08,12,02,12.30
2012,04,08,12,03,12.30
2012,04,08,12,04,12.40
2012,04,08,12,05,12.30
2012,04,08,12,06,12.30
2012,04,08,12,07,12.30
2012,04,08,12,08,12.30
2012,04,08,12,09,12.30
2012,04,08,12,10,12.30
2012,04,08,12,11,12.30
2012,04,08,12,12,12.30
2012,04,08,12,13,12.30
2012,04,08,12,14,12.30
2012,04,08,12,15,12.30
2012,04,08,12,16,12.30
2012,04,08,12,17,12.30
2012,04,08,12,18,12.30
2012,04,08,12,19,12.30
2012,04,08,12,20,12.40
2012,04,08,12,21,12.40
2012,04,08,12,22,12.40
2012,04,08,12,23,12.40
2012,04,08,12,24,12.40
2012,04,08,12,25,12.40
2012,04,08,12,26,12.40
2012,04,08,12,27,12.40
2012,04,08,12,28,12.40
2012,04,08,12,29,12.40
2012,04,08,12,30,12.50
2012,04,08,12,31,12.50
2012,04,08,12,32,12.60
2012,04,08,12,33,12.60
2012,04,08,12,34,12.70
2012,04,08,12,35,12.70
2012,04,08,12,36,12.70
2012,04,08,12,37,12.70
2012,04,08,12,38,12.70
2012,04,08,12,39,12.70
2012,04,08,12,40,12.70
2012,04,08,12,41,12.80
2012,04,08,12,42,12.80
2012,04,08,12,43,12.80
2012,04,08,12,44,12.80
2012,04,08,12,45,12.80
2012,04,08,12,46,12.80
2012,04,08,12,47,12.80
2012,04,08,12,48,12.80
2012,04,08,12,49,12.80
2012,04,08,12,50,12.80
2012,04,08,12,51,12.80
2012,04,08,12,52,12.90
2012,04,08,12,53,12.90
2012,04,08,12,54,12.90
2012,04,08,12,55,13.00
2012,04,08,12,56,13.00
2012,04,08,12,57,13.00
2012,04,08,12,58,13.00
2012,04,08,12,59,13.10
2012,04,08,13,00,13.10
2012,04,08,13,01,13.10
2012,04,08,13,02,13.10
2012,04,08,13,03,13.10
2012,04,08,13,04,13.10
2012,04,08,13,05,13.10
2012,04,08,13,06,13.10
2012,04,08,13,07,13.10
2012,04,08,13,08,13.00
2012,04,08,13,09,13.00
2012,04,08,13,10,13.00
2012,04,08,13,11,13.00
2012,04,08,13,12,13.10
2012,04,08,13,13,13.10
2012,04,08,13,14,13.10
2012,04,08,13,15,13.20
2012,04,08,13,16,13.20
2012,04,08,13,17,13.20
2012,04,08,13,18,13.30
2012,04,08,13,19,13.30
2012,04,08,13,20,13.30
2012,04,08,13,21,13.30
2012,04,08,13,22,13.40
2012,04,08,13,23,13.40
2012,04,08,13,24,13.40
2012,04,08,13,25,13.40
2012,04,08,13,26,13.30
2012,04,08,13,27,13.30
2012,04,08,13,28,13.40
2012,04,08,13,29,13.40
2012,04,08,13,30,13.40
2012,04,08,13,31,13.50
2012,04,08,13,32,13.60
2012,04,08,13,33,13.60
2012,04,08,13,34,13.70
2012,04,08,13,35,13.70
2012,04,08,13,36,13.80
2012,04,08,13,37,13.80
2012,04,08,13,38,13.80
2012,04,08,13,39,13.70
2012,04,08,13,40,13.80
2012,04,08,13,41,13.80
2012,04,08,13,42,13.80
2012,04,08,13,43,13.80
2012,04,08,13,44,13.80
2012,04,08,13,45,13.80
2012,04,08,13,46,13.80
2012,04,08,13,47,13.80
2012,04,08,13,48,13.80
2012,04,08,13,49,13.80
2012,04,08,13,50,13.90
2012,04,08,13,51,13.90
2012,04,08,13,52,13.90
2012,04,08,13,53,13.90
2012,04,08,13,54,13.90
2012,04,08,13,55,13.90
2012,04,08,13,56,14.00
2012,04,08,13,57,14.00
2012,04,08,13,58,14.00
2012,04,08,13,59,14.00
2012,04,08,14,00,14.00
2012,04,08,14,01,14.00
2012,04,08,14,02,14.00
2012,04,08,14,03,14.00
2012,04,08,14,04,14.10
2012,04,08,14,05,14.10
2012,04,08,14,06,14.10
2012,04,08,14,07,14.10
2012,04,08,14,08,14.10
2012,04,08,14,09,14.10
2012,04,08,14,10,14.00
2012,04,08,14,11,14.00
2012,04,08,14,12,13.90
2012,04,08,14,13,14.00
2012,04,08,14,14,13.90
2012,04,08,14,15,13.90
2012,04,08,14,16,13.90
2012,04,08,14,17,13.90
2012,04,08,14,18,14.00
2012,04,08,14,19,14.00
2012,04,08,14,20,14.10
2012,04,08,14,21,14.10
2012,04,08,14,22,14.10
2012,04,08,14,23,14.10
2012,04,08,14,24,14.10
2012,04,08,14,25,14.10
2012,04,08,14,26,14.20
2012,04,08,14,27,14.20
2012,04,08,14,28,14.30
2012,04,08,14,29,14.30
2012,04,08,14,30,14.30
2012,04,08,14,31,14.30
2012,04,08,14,32,14.40
2012,04,08,14,33,14.40
2012,04,08,14,34,14.50
2012,04,08,14,35,14.50
2012,04,08,14,36,14.60
2012,04,08,14,37,14.60
2012,04,08,14,38,14.60
2012,04,08,14,39,14.60
2012,04,08,14,40,14.60
2012,04,08,14,41,14.60
2012,04,08,14,42,14.60
2012,04,08,14,43,14.60
2012,04,08,14,44,14.60
2012,04,08,14,45,14.60
2012,04,08,14,46,14.60
2012,04,08,14,47,14.60
2012,04,08,14,48,14.70
2012,04,08,14,49,14.70
2012,04,08,14,50,14.80
2012,04,08,14,51,14.90
2012,04,08,14,52,15.00
2012,04,08,14,53,15.00
2012,04,08,14,54,15.00
2012,04,08,14,55,15.00
2012,04,08,14,56,15.00
2012,04,08,14,57,15.10
2012,04,08,14,58,15.20
2012,04,08,14,59,15.20
2012,04,08,15,00,15.10
2012,04,08,15,01,15.00
2012,04,08,15,02,15.00
2012,04,08,15,03,15.00
2012,04,08,15,04,15.00
2012,04,08,15,05,15.00
2012,04,08,15,06,15.00
2012,04,08,15,07,15.00
2012,04,08,15,08,15.00
2012,04,08,15,09,15.00
2012,04,08,15,10,15.00
2012,04,08,15,11,15.00
2012,04,08,15,12,15.00
2012,04,08,15,13,15.00
2012,04,08,15,14,15.00
2012,04,08,15,15,15.00
2012,04,08,15,16,15.00
2012,04,08,15,17,14.90
2012,04,08,15,18,14.90
2012,04,08,15,19,14.90
2012,04,08,15,20,14.80
2012,04,08,15,21,14.80
2012,04,08,15,22,14.80
2012,04,08,15,23,14.80
2012,04,08,15,24,14.70
2012,04,08,15,25,14.70
2012,04,08,15,26,14.70
2012,04,08,15,27,14.60
2012,04,08,15,28,14.60
2012,04,08,15,29,14.60
2012,04,08,15,30,14.60
2012,04,08,15,31,14.60
2012,04,08,15,32,14.60
2012,04,08,15,33,14.60
2012,04,08,15,34,14.60
2012,04,08,15,35,14.60
2012,04,08,15,36,14.70
2012,04,08,15,37,14.70
2012,04,08,15,38,14.70
2012,04,08,15,39,14.80
2012,04,08,15,40,14.80
2012,04,08,15,41,14.80
2012,04,08,15,42,14.80
2012,04,08,15,43,14.80
2012,04,08,15,44,14.80
2012,04,08,15,45,14.80
2012,04,08,15,46,14.80
2012,04,08,15,47,14.80
2012,04,08,15,48,14.80
2012,04,08,15,49,14.80
2012,04,08,15,50,14.80
2012,04,08,15,51,14.80
2012,04,08,15,52,14.80
2012,04,08,15,53,14.80
2012,04,08,15,54,14.80
2012,04,08,15,55,14.80
2012,04,08,15,56,14.80
2012,04,08,15,57,14.80
2012,04,08,15,58,14.80
2012,04,08,15,59,14.80
2012,04,08,16,00,14.80
2012,04,08,16,01,14.80
2012,04,08,16,02,14.90
2012,04,08,16,03,14.90
2012,04,08,16,04,14.90
2012,04,08,16,05,14.90
2012,04,08,16,06,14.90
2012,04,08,16,07,14.90
2012,04,08,16,08,14.90
2012,04,08,16,09,14.90
2012,04,08,16,10,14.90
2012,04,08,16,11,14.90
2012,04,08,16,12,14.80
2012,04,08,16,13,14.80
2012,04,08,16,14,14.80
2012,04,08,16,15,14.80
2012,04,08,16,16,14.90
2012,04,08,16,17,14.90
2012,04,08,16,18,15.00
2012,04,08,16,19,15.00
2012,04,08,16,20,15.00
2012,04,08,16,21,15.00
2012,04,08,16,22,15.10
2012,04,08,16,23,15.20
2012,04,08,16,24,15.20
2012,04,08,16,25,15.20
2012,04,08,16,26,15.20
2012,04,08,16,27,15.20
2012,04,08,16,28,15.10
2012,04,08,16,29,15.20
2012,04,08,16,30,15.20
2012,04,08,16,31,15.20
2012,04,08,16,32,15.20
2012,04,08,16,33,15.30
2012,04,08,16,34,15.30
2012,04,08,16,35,15.40
2012,04,08,16,36,15.40
2012,04,08,16,37,15.30
2012,04,08,16,38,15.30
2012,04,08,16,39,15.30
2012,04,08,16,40,15.20
2012,04,08,16,41,15.20
2012,04,08,16,42,15.20
2012,04,08,16,43,15.20
2012,04,08,16,44,15.30
2012,04,08,16,45,15.30
2012,04,08,16,46,15.30
2012,04,08,16,47,15.40
2012,04,08,16,48,15.40
2012,04,08,16,49,15.40
2012,04,08,16,50,15.40
2012,04,08,16,51,15.40
2012,04,08,16,52,15.40
2012,04,08,16,53,15.40
2012,04,08,16,54,15.40
2012,04,08,16,55,15.40
2012,04,08,16,56,15.40
2012,04,08,16,57,15.50
2012,04,08,16,58,15.50
2012,04,08,16,59,15.50
2012,04,08,17,00,15.40
2012,04,08,17,01,15.40
2012,04,08,17,02,15.50
2012,04,08,17,03,15.50
2012,04,08,17,04,15.50
2012,04,08,17,05,15.60
2012,04,08,17,06,15.60
2012,04,08,17,07,15.60
2012,04,08,17,08,15.60
2012,04,08,17,09,15.60
2012,04,08,17,10,15.70
2012,04,08,17,11,15.70
2012,04,08,17,12,15.80
2012,04,08,17,13,15.80
2012,04,08,17,14,15.90
2012,04,08,17,15,15.90
2012,04,08,17,16,15.90
2012,04,08,17,17,15.90
2012,04,08,17,18,15.90
2012,04,08,17,19,15.90
2012,04,08,17,20,15.90
2012,04,08,17,21,15.90
2012,04,08,17,22,15.90
2012,04,08,17,23,15.80
2012,04,08,17,24,15.80
2012,04,08,17,25,15.70
2012,04,08,17,26,15.70
2012,04,08,17,27,15.60
2012,04,08,17,28,15.50
2012,04,08,17,29,15.50
2012,04,08,17,30,15.40
2012,04,08,17,31,15.30
2012,04,08,17,32,15.30
2012,04,08,17,33,15.30
2012,04,08,17,34,15.30
2012,04,08,17,35,15.20
2012,04,08,17,36,15.20
2012,04,08,17,37,15.10
2012,04,08,17,38,15.00
2012,04,08,17,39,15.00
2012,04,08,17,40,15.00
2012,04,08,17,41,15.00
2012,04,08,17,42,15.00